Terug naar catalogus

THORAD AGENA D DEB

ActiefLEO
NORAD 4968·DEBRIS·🇺🇸 United States

Gelanceerd Apr 8, 1970 vanaf Vandenberg Space Force Base

Loading…

Volgende Passages (komende 24 uur)

TLE

VersSource: Space-Track

Epoch: Sep 14, 2026, 12:09 UTC

1 04968U 70025GN  26257.50643986  .00000123  00000-0  22024-3 0  9993
2 04968 100.1798 271.8011 0019976 158.1302 356.7266 13.62761322796579

Volg THORAD AGENA D DEB in realtime met AllMySat

Download on the App Store